| time (UTC) | temp F | wind direction | speed knots | gust knots | rain 1hr in | rain 24hr in | rain mn in | humidity % | barometer mb |
| 20260504171529 | 69 | 313 | 3.5 | 13.0 | 0.00 | 0.00 | 0.00 | 32 | 1010.9 |
| 20260504081535 | 51 | 242 | 1.7 | 6.1 | 0.00 | 0.00 | 0.00 | 46 | 1012.8 |
| 20260504044531 | 49 | 0 | 0.0 | 1.7 | 0.00 | 0.00 | 0.00 | 47 | 1012.1 |
| 20260504043032 | 50 | 199 | 0.0 | 1.7 | 0.00 | 0.00 | 0.00 | 47 | 1011.9 |
| 20260504041541 | 50 | 237 | 0.9 | 3.5 | 0.00 | 0.00 | 0.00 | 46 | 1011.8 |
| 20260504040040 | 50 | 0 | 0.0 | 1.7 | 0.00 | 0.00 | 0.00 | 45 | 1011.9 |
| 20260504034538 | 50 | 0 | 0.0 | 2.6 | 0.00 | 0.00 | 0.00 | 45 | 1011.8 |
| 20260504033030 | 50 | 223 | 0.9 | 2.6 | 0.00 | 0.00 | 0.00 | 46 | 1012.0 |
| 20260504031533 | 50 | 229 | 0.0 | 1.7 | 0.00 | 0.00 | 0.00 | 45 | 1011.9 |
| 20260504030035 | 49 | 0 | 0.0 | 0.0 | 0.00 | 0.00 | 0.00 | 51 | 1011.9 |
| 20260504024532 | 49 | 0 | 0.0 | 0.0 | 0.00 | 0.00 | 0.00 | 46 | 1011.9 |
| 20260504023030 | 49 | 0 | 0.0 | 1.7 | 0.00 | 0.00 | 0.00 | 48 | 1012.0 |
| 20260504021532 | 50 | 0 | 0.0 | 0.0 | 0.00 | 0.00 | 0.00 | 45 | 1011.9 |
| 20260504020037 | 50 | 0 | 0.0 | 0.0 | 0.00 | 0.00 | 0.00 | 44 | 1011.9 |
| 20260504014532 | 51 | 0 | 0.0 | 0.0 | 0.00 | 0.00 | 0.00 | 43 | 1011.9 |
| 20260504013040 | 52 | 0 | 0.0 | 0.0 | 0.00 | 0.00 | 0.00 | 40 | 1012.3 |
| 20260504011532 | 52 | 271 | 0.9 | 2.6 | 0.00 | 0.00 | 0.00 | 39 | 1011.6 |
| 20260504010032 | 53 | 0 | 0.0 | 0.9 | 0.00 | 0.00 | 0.00 | 39 | 1011.4 |
| 20260504004532 | 53 | 226 | 0.0 | 2.6 | 0.00 | 0.00 | 0.00 | 36 | 1011.3 |
| 20260504003029 | 54 | 271 | 0.0 | 1.7 | 0.00 | 0.00 | 0.00 | 34 | 1011.1 |
| 20260504001536 | 55 | 296 | 0.9 | 3.5 | 0.00 | 0.00 | 0.00 | 32 | 1010.7 |
| 20260504000028 | 56 | 294 | 0.9 | 5.2 | 0.00 | 0.00 | 0.00 | 32 | 1010.6 |
| 20260503234532 | 56 | 300 | 1.7 | 7.8 | 0.00 | 0.00 | 0.00 | 30 | 1010.3 |
| 20260503233030 | 57 | 275 | 2.6 | 6.1 | 0.00 | 0.00 | 0.00 | 29 | 1010.0 |
| 20260503231532 | 58 | 322 | 2.6 | 7.0 | 0.00 | 0.00 | 0.00 | 28 | 1009.9 |
| 20260503230038 | 58 | 252 | 4.3 | 7.8 | 0.00 | 0.00 | 0.00 | 27 | 1009.7 |
| 20260503224534 | 59 | 348 | 5.2 | 12.2 | 0.00 | 0.00 | 0.00 | 27 | 1009.5 |
| 20260503223030 | 59 | 286 | 2.6 | 7.8 | 0.00 | 0.00 | 0.00 | 25 | 1009.5 |
| 20260503221533 | 59 | 277 | 7.0 | 11.3 | 0.00 | 0.00 | 0.00 | 26 | 1009.6 |
| 20260503220030 | 59 | 287 | 4.3 | 13.0 | 0.00 | 0.00 | 0.00 | 25 | 1009.6 |
| 20260503214538 | 59 | 335 | 6.1 | 13.9 | 0.00 | 0.00 | 0.00 | 25 | 1009.8 |
| 20260503213029 | 59 | 265 | 3.5 | 13.0 | 0.00 | 0.00 | 0.00 | 25 | 1009.6 |
| 20260503211530 | 59 | 313 | 4.3 | 15.6 | 0.00 | 0.00 | 0.00 | 25 | 1009.4 |
| 20260503210033 | 59 | 338 | 4.3 | 11.3 | 0.00 | 0.00 | 0.00 | 26 | 1009.7 |
| 20260503204530 | 59 | 294 | 4.3 | 11.3 | 0.00 | 0.00 | 0.00 | 26 | 1010.2 |
| 20260503203035 | 59 | 275 | 3.5 | 19.1 | 0.00 | 0.00 | 0.00 | 27 | 1009.4 |
| 20260503201530 | 58 | 323 | 5.2 | 11.3 | 0.00 | 0.00 | 0.00 | 28 | 1009.6 |
| 20260503200031 | 57 | 13 | 4.3 | 14.8 | 0.00 | 0.00 | 0.00 | 28 | 1009.5 |
| 20260503194538 | 56 | 322 | 4.3 | 14.8 | 0.00 | 0.00 | 0.00 | 31 | 1009.6 |
| 20260503193044 | 55 | 216 | 6.1 | 19.1 | 0.00 | 0.00 | 0.00 | 30 | 1009.9 |
| 20260503191601 | 57 | 300 | 1.7 | 12.2 | 0.00 | 0.00 | 0.00 | 31 | 1009.8 |
| 20260503190036 | 55 | 37 | 3.5 | 17.4 | 0.00 | 0.00 | 0.00 | 34 | 1010.1 |
| 20260503184536 | 56 | 334 | 4.3 | 11.3 | 0.00 | 0.00 | 0.00 | 32 | 1010.5 |
| 20260503183035 | 55 | 336 | 7.0 | 17.4 | 0.00 | 0.00 | 0.00 | 34 | 1010.5 |
| 20260503181546 | 55 | 323 | 4.3 | 11.3 | 0.00 | 0.00 | 0.00 | 34 | 1010.5 |
| 20260503180038 | 53 | 34 | 4.3 | 13.0 | 0.00 | 0.00 | 0.00 | 35 | 1010.4 |
| 20260503174543 | 53 | 265 | 5.2 | 13.9 | 0.00 | 0.00 | 0.00 | 35 | 1010.4 |
| 20260503173032 | 53 | 293 | 6.1 | 16.5 | 0.00 | 0.00 | 0.00 | 36 | 1010.3 |